This demonstration page uses our WeatherBlox Daily Observations layout. Learn more.

41.55636, -103.73856

Hourly Observations for June 22, 2020

Temp ( °F °C ) Dew Point ( °F °C ) Humidity (%) Winds ( mph kmh ) Pressure ( in mb ) Visibility ( mi km ) Precip ( " mm )
12:58 am 00:58 Clear 72 22.2 48 8.9 43 43 N 3 6 29.85 1011 10 16.0934 0 0
1:58 am 01:58 Clear 70 21.2 48 8.9 45 45 Calm 29.85 1011 10 16.0934 0 0
2:58 am 02:58 Clear 67 19.7 48 8.7 49 49 Calm 29.88 1012 10 16.0934 0 0
3:58 am 03:58 Mostly Clear 58 14.4 47 8.5 68 68 SW 5 7 29.93 1014 10 16.0934 0 0
4:58 am 04:58 Mostly Cloudy 60 15.3 49 9.2 67 67 NE 3 6 29.94 1014 10 16.0934 0 0
5:58 am 05:58 Mostly Cloudy 58 14.5 49 9.4 72 72 Calm 29.94 1014 10 16.0934 0 0
6:58 am 06:58 Mostly Cloudy 56 13.2 48 9 76 76 SW 3 6 29.96 1015 10 16.0934 0 0
7:58 am 07:58 Clear 51 10.8 47 8.3 85 85 W 6 9 29.97 1015 10 16.0934 0 0
8:58 am 08:58 Clear 50 10.1 47 8.2 88 88 W 3 6 29.97 1015 10 16.0934 0 0
9:58 am 09:58 Mostly Cloudy 52 11.3 46 7.8 79 79 W 5 7 30.01 1016 10 16.0934 0 0
10:58 am 10:58 Clear 51 10.5 45 7.4 81 81 WSW 7 11 30.01 1016 10 16.0934 0 0
11:58 am 11:58 Sunny 52 10.9 45 7.4 79 79 W 8 13 30.03 1017 10 16.0934 0 0
12:58 pm 12:58 Sunny 54 12.2 47 8.6 79 79 W 3 6 30.03 1017 10 16.0934 0 0
1:58 pm 13:58 Sunny 60 15.8 48 9 64 64 WNW 8 13 30.02 1017 10 16.0934 0 0
2:58 pm 14:58 Sunny 68 19.9 47 8.3 47 47 NNW 10 17 30.01 1016 10 16.0934 0 0
3:58 pm 15:58 Sunny 72 22.3 44 6.8 37 37 N 9 15 30.03 1017 10 16.0934 0 0
4:58 pm 16:58 Sunny 75 23.8 44 6.4 33 33 N 8 13 30.02 1017 10 16.0934 0 0
5:58 pm 17:58 Mostly Sunny 75 23.9 42 5.5 31 31 NW 9 15 30.04 1017 10 16.0934 0 0
6:58 pm 18:58 Mostly Sunny 78 25.6 40 4.6 26 26 N 10 17 30.01 1016 10 16.0934 0 0
7:58 pm 19:58 Partly Cloudy 77 25.1 40 4.2 26 26 N 16 26 30.02 1017 10 16.0934 0 0
8:58 pm 20:58 Mostly Sunny 79 25.9 36 2.3 22 22 NW 15 24 30.02 1017 10 16.0934 0 0
9:58 pm 21:58 Mostly Cloudy 81 27 38 3.4 22 22 N 18 30 30 1016 10 16.0934 0 0
10:58 pm 22:58 Partly Cloudy 80 26.8 38 3.5 22 22 N 20 31 30 1016 10 16.0934 0 0
11:58 pm 23:58 Sunny 79 26.2 37 3 22 22 NNE 13 20 30 1016 10 16.0934 0 0

Powered by AerisWeather